This is the latest recevied weather packets stored in our database for station/object SV9TNF-4. If no packets are shown the sender has not sent any weather packets the latest 10 day(s).
| Time | Temp. | Humidity | Pressure | Rain* | Wind** | Luminosity | Snow |
|---|---|---|---|---|---|---|---|
| 1777807142 | 18.33° C | 41% | 1016.6 hPa | 0 mm | 4.92 m/s, 264° | - | - |
| 1777806842 | 18.33° C | 41% | 1016.6 hPa | 0 mm | 4.92 m/s, 264° | - | - |
| 1777806542 | 18.33° C | 41% | 1016.6 hPa | 0 mm | 4.92 m/s, 264° | - | - |
| 1777806242 | 18.33° C | 41% | 1016.6 hPa | 0 mm | 4.92 m/s, 264° | - | - |
| 1777805943 | 17.78° C | 41% | 1016.6 hPa | 0 mm | 9.83 m/s, 347° | - | - |
| 1777805642 | 17.78° C | 41% | 1016.6 hPa | 0 mm | 9.83 m/s, 347° | - | - |
| 1777805342 | 17.78° C | 41% | 1016.6 hPa | 0 mm | 9.83 m/s, 347° | - | - |
| 1777804742 | 17.78° C | 41% | 1016.6 hPa | 0 mm | 21.01 m/s, 276° | - | - |
| 1777804442 | 17.78° C | 41% | 1016.6 hPa | 0 mm | 21.01 m/s, 276° | - | - |
| 1777804141 | 18.33° C | 38% | 1016.9 hPa | 0 mm | 16.09 m/s, 302° | - | - |
| 1777803841 | 18.33° C | 38% | 1016.9 hPa | 0 mm | 16.09 m/s, 302° | - | - |
| 1777803541 | 18.33° C | 38% | 1016.9 hPa | 0 mm | 16.09 m/s, 302° | - | - |
| 1777803241 | 17.78° C | 38% | 1016.6 hPa | 0 mm | 9.83 m/s, 276° | - | - |
| 1777802941 | 17.78° C | 38% | 1016.6 hPa | 0 mm | 9.83 m/s, 276° | - | - |
| 1777802641 | 17.78° C | 38% | 1016.6 hPa | 0 mm | 9.83 m/s, 276° | - | - |
| 1777802341 | 17.78° C | 38% | 1016.6 hPa | 0 mm | 9.83 m/s, 276° | - | - |
| 1777802041 | 17.78° C | 38% | 1016.6 hPa | 0 mm | 9.83 m/s, 276° | - | - |
| 1777801741 | 17.78° C | 38% | 1016.6 hPa | 0 mm | 9.83 m/s, 276° | - | - |
| 1777801441 | 17.78° C | 37% | 1016.9 hPa | 0 mm | 17.88 m/s, 333° | - | - |
| 1777801140 | 17.78° C | 37% | 1016.9 hPa | 0 mm | 17.88 m/s, 333° | - | - |
| 1777800840 | 17.78° C | 37% | 1016.9 hPa | 0 mm | 17.88 m/s, 333° | - | - |
| 1777800540 | 17.78° C | 37% | 1016.9 hPa | 0 mm | 17.88 m/s, 333° | - | - |
| 1777800240 | 17.78° C | 37% | 1016.9 hPa | 0 mm | 17.88 m/s, 333° | - | - |
| 1777799941 | 17.78° C | 37% | 1016.9 hPa | 0 mm | 17.88 m/s, 333° | - | - |
| 1777799640 | 17.22° C | 39% | 1016.9 hPa | 0 mm | 12.96 m/s, 292° | - | - |
* Rain latest hour (hover to see other rain measurements)
** Current wind speed in m/s (hover to see current wind gust speed)